METEOR 2-17 DEB

Satellite information

Favourite Embed

Satellite Type and Status

DEBRISIN ORBIT

Key statistics

Satellite METEOR 2-17 DEB at a glance.

Uptime

13833

Days in orbit

Revolutions

≈ 14.0

Per day

Orbit

LEO

Low Earth Orbit

Inclination

82.5

Latest

Satellite identification and parameters

Extended collection of information and parameters for METEOR 2-17 DEB.

Object identification

Identified? True

Debris? True

Object name: METEOR 2-17 DEB

International designator: 1988-005G

Object number (NORAD): 28992

Object ID (CCSDS): 28992

Country: COMMONWEALTH OF INDEPENDENT STATES (CIS)

Current information (Y/N): Y

RCS size: SMALL

Orbital parameters

Period: 102.882 minutes

Inclination: 82.536 deg

SMA: 7273.093 km

Apoapsis: 901.701 km

Periapsis: 888.214 km

RAAN: 76.2696 deg

Eccentricy: 0.00092714

Argument of periapsis: 152.8618 deg

Mean anomaly: 28.9388 deg

Mean motion: 13.99664973 rev/day

Mean motion (dot): 0.00003976 rev/day2

B* drag term: 0.0027092798 1/REarth

Two-line elements (TLE)

Creation date: Dec. 8, 2025, 11:02 a.m.

Reference frame: TEME

Reference center: EARTH

Epoch: Dec. 8, 2025, 12:54 a.m. UTC

TLE line 0: 0 METEOR 2-17 DEB

TLE line 1: 1 28992U 88005G 25342.03795578 .00003976 00000-0 27093-2 0 9999

TLE line 2: 2 28992 82.5360 76.2696 0009271 152.8618 28.9388 13.99664973633795

Live tracking on map

Real-time ground track for satellite METEOR 2-17 DEB.

In-orbit conjunctions

A list of the most updated potential collisions computed for object METEOR 2-17 DEB.

Target Orbit TCA Probability of collision Miss distance Type
FENGYUN 1C DEB SSO 2025-10-06 08:27:36 0.0003532153 54.0 (m) DEBRIS
TEMPSAT 2 LEO 2024-12-20 12:54:20 0.0002377663 494.0 (m) PAYLOAD
FENGYUN 1C DEB SSO 2024-08-30 17:08:41 0.001403495 28.0 (m) DEBRIS

Associated space launch

Second generation soviet meteorological satellite

METEOR 2-17 DEB was lifted into orbit during the mission ‘Tsiklon-3 | Meteor-2 17’, on board a Tsiklon-3 space rocket.

The launch took place on Jan. 30, 1988, 10:59 a.m. from 32/1.

For more information about the launch, click the button.

Launch to space Tsiklon-3 | Meteor-2 17
Tsiklon-3 | Meteor-2 17

Agency: N/A

Status: Launch Successful

Launch date: Jan. 30, 1988, 10:59 a.m. UTC

Rocket: Tsiklon-3

Launch pad: 32/1

Location: Plesetsk Cosmodrome, Russian Federation

...

Latest news about this satellite

There are no fresh news available about this satellite. Check back as we update our databases every day.


Newsletter sign-up

Weekly statistics, charts and insights to help you stay on top of the space industry.